sat.trackr.live / text

‹ back to catalog

STARLINK-37651

NORAD 69353 · 2026-123A

PAYLOAD ACTIVE UNKNOWN

§ Identity

Operator
Country
US
Launch date
2026-06-04
Launch site
AFETR
Launch vehicle
Mass (kg)
RCS (m²)

Purposes: comms

External: N2YO · Heavens-Above · Gunter

§ Orbital elements

Epoch: 2026-09-20T01:11:29.200128Z

Period
93.85 min
Inclination
53.1592°
Eccentricity
0.0001267
Mean motion
15.34406548 rev/d
Perigee alt
461.8 km
Apogee alt
463.6 km
Semi-major
6,840.8 km
B*
3.0383e-4
RAAN
143.6354°
Arg perigee
89.2964°
Mean anomaly
270.8184°
Rev number
1,680

§ Raw data

STARLINK-376511 69353U 26123A   26263.04964352  .00009905  00000+0  30383-3 0  99942 69353  53.1592 143.6354 0001267  89.2964 270.8184 15.34406548 16808

JSON: /api/v1/satellites/69353 · /tle

For live sub-satellite position, see the globe view (requires WebGL).

§ Visibility from observer

Set your observer location to see the next 7 days of passes ≥ 10°. The values pass through the URL so the page stays shareable.

No JS? Fill the form by hand. The geolocation button needs JavaScript.